TimeCST,TemperatureF,Dew PointF,Humidity,Sea Level PressureIn,VisibilityMPH,Wind Direction,Wind SpeedMPH,Gust SpeedMPH,PrecipitationIn,Events,Conditions,WindDirDegrees,DateUTC
12:00 AM,64.4,62.6,94,30.27,2.5,Calm,Calm,-,N/A,,Scattered Clouds,0,2013-08-25 06:00:00
1:00 AM,64.4,62.6,94,30.27,3.1,Calm,Calm,-,N/A,,Scattered Clouds,0,2013-08-25 07:00:00
1:45 AM,-9999,-9999,N/A,-9999,1.2,South,4.6,-,N/A,,Drizzle,180,2013-08-25 07:45:00
2:00 AM,64.4,62.6,94,30.24,1.2,South,4.6,-,N/A,,Drizzle,180,2013-08-25 08:00:00
3:00 AM,62.6,62.6,100,30.24,3.7,SW,4.6,-,N/A,,Light Drizzle,220,2013-08-25 09:00:00
4:00 AM,62.6,62.6,100,30.24,3.7,SW,4.6,-,N/A,,Mostly Cloudy,220,2013-08-25 10:00:00
5:00 AM,62.6,62.6,100,30.27,4.3,Calm,Calm,-,N/A,,Mostly Cloudy,0,2013-08-25 11:00:00
6:00 AM,63,62,96,29.95,25,Calm,Calm,,,,Partly Cloudy,,2013-08-25 12:00:00
6:00 AM,62.6,62.6,100,30.27,6.2,Calm,Calm,-,N/A,,Mostly Cloudy,0,2013-08-25 12:00:00
7:00 AM,64.4,62.6,94,30.27,6.2,West,4.6,-,N/A,,Scattered Clouds,270,2013-08-25 13:00:00
8:00 AM,64.4,62.6,94,30.30,6.2,SW,6.9,-,N/A,,Mostly Cloudy,220,2013-08-25 14:00:00
9:00 AM,64.4,62.6,94,30.33,6.2,SSW,6.9,-,N/A,,Mostly Cloudy,200,2013-08-25 15:00:00
10:00 AM,66.2,62.6,88,30.33,6.2,SSW,9.2,-,N/A,,Mostly Cloudy,200,2013-08-25 16:00:00
11:00 AM,69.8,62.6,78,30.30,6.2,SSW,6.9,-,N/A,,Mostly Cloudy,200,2013-08-25 17:00:00
12:00 PM,72,63,65,29.95,25,South,4.6,,,,Overcast,180,2013-08-25 18:00:00
12:00 PM,71.6,62.6,73,30.27,6.2,South,4.6,-,N/A,,Mostly Cloudy,180,2013-08-25 18:00:00
1:00 PM,73.4,62.6,69,30.27,6.2,South,4.6,-,N/A,,Scattered Clouds,180,2013-08-25 19:00:00
2:00 PM,73.4,64.4,73,30.24,6.2,South,4.6,-,N/A,Thunderstorm,Thunderstorm,180,2013-08-25 20:00:00
2:24 PM,-9999,-9999,N/A,-9999,6.2,North,9.2,-,N/A,,Scattered Clouds,360,2013-08-25 20:24:00
2:25 PM,-9999,-9999,N/A,-9999,6.2,North,9.2,-,N/A,,Scattered Clouds,360,2013-08-25 20:25:00
2:30 PM,-9999,-9999,N/A,-9999,6.2,NNE,11.5,-,N/A,Rain,Light Rain,30,2013-08-25 20:30:00
3:00 PM,68.0,64.4,88,30.21,6.2,NNE,4.6,-,N/A,,Scattered Clouds,30,2013-08-25 21:00:00
3:15 PM,-9999,-9999,N/A,-9999,3.7,South,11.5,-,N/A,Rain,Rain,180,2013-08-25 21:15:00
3:20 PM,-9999,-9999,N/A,-9999,1.2,South,18.4,-,N/A,Rain,Heavy Rain,180,2013-08-25 21:20:00
3:25 PM,-9999,-9999,N/A,-9999,4.3,South,11.5,-,N/A,Rain,Rain,180,2013-08-25 21:25:00
4:00 PM,66.2,64.4,94,30.21,6.2,South,6.9,-,N/A,,Mostly Cloudy,180,2013-08-25 22:00:00
4:30 PM,-9999,-9999,N/A,-9999,6.2,South,6.9,-,N/A,Thunderstorm,Thunderstorm,180,2013-08-25 22:30:00
4:35 PM,-9999,-9999,N/A,-9999,6.2,South,6.9,-,N/A,Rain-Thunderstorm,Light Thunderstorms and Rain,180,2013-08-25 22:35:00
5:00 PM,68.0,66.2,94,30.24,5.0,South,11.5,-,N/A,Rain,Light Rain,180,2013-08-25 23:00:00
5:10 PM,-9999,-9999,N/A,-9999,1.9,South,11.5,-,N/A,Rain,Light Rain,180,2013-08-25 23:10:00
6:00 PM,64,63,97,29.95,2,South,6.9,,,Rain,Rain,180,2013-08-26 00:00:00
6:00 PM,64.4,62.6,94,30.24,1.9,South,6.9,-,N/A,Rain,Rain,180,2013-08-26 00:00:00
7:00 PM,62.6,60.8,94,30.30,2.5,South,9.2,-,N/A,Rain,Light Rain,190,2013-08-26 01:00:00
8:00 PM,60.8,60.8,100,30.33,3.1,South,4.6,-,N/A,Rain,Light Rain,180,2013-08-26 02:00:00
8:10 PM,-9999,-9999,N/A,-9999,5.0,South,4.6,-,N/A,,Drizzle,190,2013-08-26 02:10:00
9:00 PM,62.6,62.6,100,30.33,6.2,South,3.5,-,N/A,,Light Drizzle,170,2013-08-26 03:00:00
9:50 PM,-9999,-9999,N/A,-9999,3.1,Calm,Calm,-,N/A,Rain,Light Rain,0,2013-08-26 03:50:00
10:00 PM,62.6,60.8,94,30.33,3.1,South,3.5,-,N/A,Rain,Rain,170,2013-08-26 04:00:00
10:43 PM,-9999,-9999,N/A,-9999,5.0,SSW,3.5,-,N/A,,Light Drizzle,200,2013-08-26 04:43:00
11:00 PM,62.6,60.8,94,30.33,5.0,Calm,Calm,-,N/A,,Light Drizzle,0,2013-08-26 05:00:00